This is the latest recevied weather packets stored in our database for station/object N0MPM-4. If no packets are shown the sender has not sent any weather packets the latest 10 day(s).
| Time | Temp. | Humidity | Pressure | Rain* | Wind** | Luminosity | Snow |
|---|---|---|---|---|---|---|---|
| 1777742700 | 15.56° C | 39% | 1021.3 hPa | 0 mm | - | - | - |
| 1777742400 | 15° C | 35% | 1021.3 hPa | 0 mm | - | - | - |
| 1777742100 | 14.44° C | 41% | 1021.3 hPa | 0 mm | - | - | - |
| 1777741800 | 13.89° C | 37% | 1021.4 hPa | 0 mm | - | - | - |
| 1777741500 | 13.89° C | 39% | 1021.4 hPa | 0 mm | - | - | - |
| 1777741200 | 13.33° C | 38% | 1021.4 hPa | 0 mm | - | - | - |
| 1777740900 | 13.33° C | 35% | 1021.4 hPa | 0 mm | - | - | - |
| 1777740600 | 13.33° C | 34% | 1021.5 hPa | 0 mm | - | - | - |
| 1777740300 | 13.33° C | 39% | 1021.6 hPa | 0 mm | - | - | - |
| 1777740000 | 13.33° C | 39% | 1021.6 hPa | 0 mm | - | - | - |
| 1777739700 | 12.78° C | 38% | 1021.6 hPa | 0 mm | - | - | - |
| 1777739400 | 12.78° C | 37% | 1021.6 hPa | 0 mm | - | - | - |
| 1777739100 | 13.33° C | 35% | 1021.6 hPa | 0 mm | - | - | - |
| 1777738800 | 14.44° C | 34% | 1021.6 hPa | 0 mm | - | - | - |
| 1777738500 | 15° C | 42% | 1021.7 hPa | 0 mm | - | - | - |
| 1777738200 | 14.44° C | 39% | 1021.7 hPa | 0 mm | - | - | - |
| 1777737900 | 13.89° C | 35% | 1021.8 hPa | 0 mm | - | - | - |
| 1777737600 | 13.89° C | 39% | 1021.8 hPa | 0 mm | - | - | - |
| 1777737300 | 13.89° C | 36% | 1021.8 hPa | 0 mm | - | - | - |
| 1777737001 | 13.33° C | 37% | 1021.8 hPa | 0 mm | - | - | - |
| 1777736701 | 13.33° C | 39% | 1021.8 hPa | 0 mm | - | - | - |
| 1777736401 | 12.78° C | 38% | 1021.9 hPa | 0 mm | - | - | - |
| 1777736101 | 13.33° C | 34% | 1021.8 hPa | 0 mm | - | - | - |
| 1777735801 | 13.89° C | 39% | 1021.8 hPa | 0 mm | - | - | - |
| 1777735501 | 13.33° C | 39% | 1021.8 hPa | 0 mm | - | - | - |
* Rain latest hour (hover to see other rain measurements)
** Current wind speed in m/s (hover to see current wind gust speed)